Date String (YYYY-MM-DD hh:mm:ss) UTC,Instrument flags,absolute air pressure of the measurement (hPa),sample flow rate (lpm),inlet stack bypass flow (lpm),air temperature of the measurement (°C),ambient temperature measured by the external sensor (°C),aerosol sample conditioner tube jacket temperature (°C),OPC LED temperature (°C),internal box temperature (°C),relative humidity of the measurement (%),span deviation,mass concentration of particles derived from Lorenz-Mie calculation of OPC scattering (μg/m³),mass concentration of particles derived from Lorenz-Mie calculation of OPC scattering (μg/m³),mass concentration of particles derived from Lorenz-Mie calculation of OPC scattering (μg/m³)
DateTimeUTC,F1_M11,P_M11,Q1_M11,Q2_M11,T1_M11,T2_M11,T3_M11,T4_M11,T5_M11,U1_M11,ZSPAN_M11,X2_M11,X0_M11,X1_M11
2023-06-22 15:00:00,SystemResetWarning,0832.0,5.00,000.00,030.1,026.5,000.0,038.6,031.1,31.5,0000.0,0003.80,0010.05,0003.28
2023-06-22 15:01:00,SystemResetWarning,0831.9,4.99,000.00,030.0,026.8,000.0,038.6,031.2,31.8,0000.0,0003.83,0010.27,0003.29
2023-06-22 15:02:00,SystemResetWarning,0831.9,5.01,000.00,030.0,027.1,000.0,038.6,031.2,32.0,0000.0,0003.84,0009.58,0003.29
2023-06-22 15:03:00,SystemResetWarning,0831.9,5.01,000.00,030.0,027.4,000.0,038.6,031.2,32.3,0000.0,0003.82,0009.36,0003.29
2023-06-22 15:04:00,SystemResetWarning,0831.9,5.00,000.00,030.0,027.6,000.0,038.6,031.3,32.2,0000.0,0003.83,0009.37,0003.30
2023-06-22 15:05:00,SystemResetWarning,0831.9,5.00,000.00,030.0,027.8,000.0,038.6,031.3,32.2,0000.0,0003.82,0009.79,0003.31
2023-06-22 15:06:00,SystemResetWarning,0831.9,5.00,000.00,030.0,027.9,000.0,038.6,031.3,31.8,0000.0,0003.84,0010.59,0003.32
2023-06-22 15:07:00,SystemResetWarning,0831.9,5.00,000.00,030.0,028.1,000.0,038.6,031.4,31.5,0000.0,0003.82,0009.62,0003.33
2023-06-22 15:08:00,SystemResetWarning,0831.9,5.00,000.00,030.1,028.2,000.0,038.6,031.4,31.9,0000.0,0003.81,0009.04,0003.34
2023-06-22 15:09:00,SystemResetWarning,0831.9,5.00,000.00,030.1,028.3,000.0,038.6,031.4,32.6,0000.0,0003.82,0009.04,0003.36
2023-06-22 15:10:00,SystemResetWarning,0831.8,4.99,000.00,030.1,028.3,000.0,038.6,031.4,33.3,0000.0,0003.80,0008.97,0003.37
2023-06-22 15:11:00,SystemResetWarning,0831.9,5.00,000.00,030.1,028.4,000.0,038.6,031.5,31.8,0000.0,0003.83,0009.34,0003.37
2023-06-22 15:12:00,SystemResetWarning,0831.9,4.99,000.00,030.1,028.5,000.0,038.6,031.5,30.5,0000.0,0003.83,0009.53,0003.38
2023-06-22 15:13:00,SystemResetWarning,0831.8,5.00,000.00,030.1,028.5,000.0,038.6,031.5,30.3,0000.0,0003.84,0009.55,0003.39
2023-06-22 15:14:00,SystemResetWarning,0831.9,5.00,000.00,030.2,028.0,000.0,038.6,031.6,31.1,0000.0,0003.86,0010.20,0003.40
2023-06-22 15:15:00,SystemResetWarning,0831.9,5.00,000.00,030.2,026.1,000.0,038.5,031.6,31.4,0000.0,0003.86,0010.18,0003.40
2023-06-22 15:16:00,SystemResetWarning,0831.8,5.01,000.00,030.1,025.0,000.0,038.5,031.5,31.9,0000.0,0003.87,0009.88,0003.40
2023-06-22 15:17:00,SystemResetWarning,0831.8,5.01,000.00,030.1,025.1,000.0,038.4,031.2,32.1,0000.0,0003.89,0008.92,0003.42
2023-06-22 15:18:00,SystemResetWarning,0831.8,5.00,000.00,029.9,025.4,000.0,038.4,031.0,31.6,0000.0,0003.89,0008.88,0003.43
2023-06-22 15:19:00,SystemResetWarning,0832.1,4.99,000.00,029.9,025.9,000.0,038.4,031.0,32.2,0000.0,0003.88,0009.02,0003.42
2023-06-22 15:20:00,SystemResetWarning,0832.3,5.00,000.00,029.8,026.3,000.0,038.4,031.0,32.3,0000.0,0003.87,0009.13,0003.42
2023-06-22 15:21:00,SystemResetWarning,0832.1,5.00,000.00,029.8,026.7,000.0,038.4,031.1,33.2,0000.0,0003.87,0009.10,0003.43
2023-06-22 15:22:00,SystemResetWarning,0832.2,5.00,000.00,029.8,027.0,000.0,038.4,031.1,32.5,0000.0,0003.87,0008.78,0003.45
2023-06-22 15:23:00,SystemResetWarning,0831.7,5.01,000.00,029.8,027.3,000.0,038.4,031.2,31.6,0000.0,0003.88,0007.91,0003.47
2023-06-22 15:24:00,SystemResetWarning,0831.8,4.98,000.00,029.8,027.6,000.0,038.4,031.2,31.4,0000.0,0003.88,0007.92,0003.47
2023-06-22 15:25:00,SystemResetWarning,0831.8,5.00,000.00,029.8,027.8,000.0,038.4,031.2,31.7,0000.0,0003.91,0007.42,0003.49
2023-06-22 15:26:00,SystemResetWarning,0831.8,5.01,000.00,029.8,027.9,000.0,038.4,031.3,31.7,0000.0,0003.99,0007.44,0003.51
2023-06-22 15:27:00,SystemResetWarning,0831.8,5.01,000.00,029.9,028.0,000.0,038.4,031.3,32.0,0000.0,0004.00,0007.54,0003.53
2023-06-22 15:28:00,SystemResetWarning,0831.8,5.00,000.00,029.9,028.1,000.0,038.4,031.3,31.7,0000.0,0004.01,0008.02,0003.54
2023-06-22 15:29:00,SystemResetWarning,0831.8,5.00,000.00,029.9,028.2,000.0,038.4,031.3,31.7,0000.0,0004.03,0008.52,0003.57
2023-06-22 15:30:00,SystemResetWarning,0831.8,5.00,000.00,029.9,028.3,000.0,038.4,031.4,31.2,0000.0,0004.04,0008.93,0003.59
2023-06-22 15:31:00,SystemResetWarning,0831.8,5.00,000.00,029.9,028.4,000.0,038.5,031.4,32.2,0000.0,0004.06,0009.03,0003.60
2023-06-22 15:32:00,SystemResetWarning,0832.0,4.99,000.00,030.0,027.3,000.0,038.4,031.5,32.5,0000.0,0004.08,0009.43,0003.63
2023-06-22 15:33:00,SystemResetWarning,0832.4,5.01,000.00,030.0,025.5,000.0,038.3,031.4,31.8,0000.0,0004.10,0009.51,0003.65
2023-06-22 15:34:00,SystemResetWarning,0832.2,5.01,000.00,029.9,025.0,000.0,038.3,031.3,32.2,0000.0,0004.11,0010.23,0003.66
2023-06-22 15:35:00,SystemResetWarning,0832.2,5.01,000.00,029.8,025.2,000.0,038.3,031.0,32.0,0000.0,0004.13,0010.24,0003.67
2023-06-22 15:36:00,SystemResetWarning,0832.3,5.00,000.00,029.7,025.7,000.0,038.3,030.9,33.0,0000.0,0004.10,0010.18,0003.68
2023-06-22 15:37:00,SystemResetWarning,0832.3,5.01,000.00,029.7,026.1,000.0,038.3,030.9,32.5,0000.0,0004.06,0010.13,0003.68
2023-06-22 15:38:00,SystemResetWarning,0832.1,4.99,000.00,029.7,026.5,000.0,038.3,030.9,32.4,0000.0,0004.07,0010.12,0003.68
2023-06-22 15:39:00,SystemResetWarning,0832.1,4.99,000.00,029.7,026.9,000.0,038.3,031.0,32.2,0000.0,0004.06,0009.70,0003.69
2023-06-22 15:40:00,SystemResetWarning,0831.8,5.00,000.00,029.7,027.2,000.0,038.3,031.0,32.3,0000.0,0004.07,0009.54,0003.69
2023-06-22 15:41:00,SystemResetWarning,0831.7,5.01,000.00,029.7,027.4,000.0,038.3,031.1,32.0,0000.0,0004.07,0009.06,0003.68
2023-06-22 15:42:00,SystemResetWarning,0831.7,5.01,000.00,029.7,027.6,000.0,038.3,031.1,32.4,0000.0,0004.06,0008.70,0003.68
2023-06-22 15:43:00,SystemResetWarning,0832.1,5.00,000.00,029.7,027.8,000.0,038.3,031.1,31.8,0000.0,0004.08,0008.42,0003.67
2023-06-22 15:44:00,SystemResetWarning,0832.3,5.00,000.00,029.7,028.0,000.0,038.3,031.2,31.6,0000.0,0004.06,0008.41,0003.66
2023-06-22 15:45:00,SystemResetWarning,0832.3,5.00,000.00,029.8,028.1,000.0,038.3,031.2,32.2,0000.0,0004.08,0008.01,0003.67
2023-06-22 15:46:00,SystemResetWarning,0832.1,5.00,000.00,029.8,028.2,000.0,038.3,031.3,32.5,0000.0,0004.07,0008.36,0003.66
2023-06-22 15:47:00,SystemResetWarning,0831.8,5.00,000.00,029.8,028.3,000.0,038.3,031.3,32.9,0000.0,0004.07,0008.62,0003.65
2023-06-22 15:48:00,SystemResetWarning,0831.7,4.98,000.00,029.8,027.2,000.0,038.3,031.4,33.1,0000.0,0004.08,0008.95,0003.67
2023-06-22 15:49:00,SystemResetWarning,0831.7,5.00,000.00,029.8,025.4,000.0,038.2,031.3,33.2,0000.0,0004.08,0009.22,0003.67
2023-06-22 15:50:00,SystemResetWarning,0831.7,5.01,000.00,029.8,025.0,000.0,038.2,031.3,32.0,0000.0,0004.07,0009.33,0003.67
2023-06-22 15:51:00,SystemResetWarning,0831.7,5.01,000.00,029.7,025.3,000.0,038.1,030.9,31.6,0000.0,0004.06,0009.00,0003.66
2023-06-22 15:52:00,SystemResetWarning,0831.6,5.00,000.00,029.6,025.7,000.0,038.2,030.9,31.0,0000.0,0004.09,0009.02,0003.66
2023-06-22 15:53:00,SystemResetWarning,0831.7,5.01,000.00,029.6,026.1,000.0,038.2,030.9,31.1,0000.0,0004.09,0008.98,0003.67
2023-06-22 15:54:00,SystemResetWarning,0831.7,4.99,000.00,029.6,026.5,000.0,038.2,030.9,30.4,0000.0,0004.05,0008.95,0003.66
2023-06-22 15:55:00,SystemResetWarning,0831.7,4.99,000.00,029.6,026.9,000.0,038.2,031.0,31.2,0000.0,0004.05,0008.84,0003.65
2023-06-22 15:56:00,SystemResetWarning,0831.7,5.00,000.00,029.6,027.2,000.0,038.2,031.0,31.3,0000.0,0004.02,0008.64,0003.63
2023-06-22 15:57:00,SystemResetWarning,0831.7,5.01,000.00,029.6,027.4,000.0,038.2,031.1,31.3,0000.0,0003.98,0008.02,0003.61
2023-06-22 15:58:00,SystemResetWarning,0831.7,5.01,000.00,029.6,027.6,000.0,038.2,031.1,31.0,0000.0,0003.98,0007.81,0003.60
2023-06-22 15:59:00,SystemResetWarning,0831.7,5.01,000.00,029.6,027.8,000.0,038.2,031.1,28.9,0000.0,0003.96,0007.56,0003.58
